Weather History for PABL - February, 2013

Change the Weather History Date:

Wednesday, February 6, 2013

  Actual Average (PASK) Record (PASK)
Temperature  
Mean Temperature -6 °F -  
Max Temperature 5 °F 3 °F - (-1)
Min Temperature -18 °F -6 °F - (-1)
Degree Days  
Heating Degree Days 72    
Moisture  
Dew Point -11 °F    
Average Humidity 72    
Maximum Humidity 100    
Minimum Humidity 46    
Precipitation  
Precipitation 0.00 in - - ()
Sea Level Pressure  
Sea Level Pressure 29.84 in    
Wind  
Wind Speed 12 mph (NW)    
Max Wind Speed 16 mph    
Max Gust Speed 21 mph    
Visibility 10 miles    
Events      
Averages and records for this station are not official NWS values.
T = Trace of Precipitation, MM = Missing Value Source: NWS Daily Summary

Daily Weather History Graph

Daily Weather History Graph

Search for Another Location

Airport or City:

Trip Planner

Search our weather history database for the weather conditions in past years. The results will help you decide how hot, cold, wet, or windy it might be!

Date:

Astronomy

Feb. 06, 2013 Rise Set
Actual Time 10:20 AM AKST 5:37 PM AKST
Civil Twilight 9:21 AM AKST 6:37 PM AKST
Nautical Twilight 8:19 AM AKST 7:39 PM AKST
Astronomical Twilight 7:19 AM AKST 8:39 PM AKST
Moon 8:22 AM AKST (2/6) 1:04 PM AKST (2/6)
Length of Visible Light 9h 16m
Length of Day
7h 17m
Waning Crescent, 15% of the Moon is Illuminated
Feb 6
Waning Crescent
Feb 9
New
Feb 17
First Quarter
Feb 25
Full
Mar 4
Last Quarter

Hourly Weather History & Observations

Time (AKST) Temp. Windchill Dew Point Humidity Pressure Visibility Wind Dir Wind Speed Gust Speed Precip Events Conditions
12:16 AM 5.0 °F -13.0 °F -2.2 °F 72% 29.79 in 10.0 mi NNW 15.0 mph 20.7 mph N/A   Unknown
12:36 AM 3.2 °F -14.6 °F -2.2 °F 78% 29.80 in 10.0 mi NNW 13.8 mph - N/A   Unknown
12:56 AM 3.2 °F -13.1 °F -2.2 °F 78% 29.80 in 10.0 mi NNW 11.5 mph - N/A   Unknown
1:16 AM 3.2 °F -13.1 °F -2.2 °F 78% 29.80 in 10.0 mi NNW 11.5 mph - N/A   Unknown
1:36 AM 3.2 °F -13.9 °F -2.2 °F 78% 29.80 in 10.0 mi NNW 12.7 mph - N/A   Unknown
1:56 AM 5.0 °F -11.6 °F -4.0 °F 66% 29.80 in 10.0 mi NW 12.7 mph - N/A   Unknown
2:16 AM 3.2 °F -13.9 °F -2.2 °F 78% 29.80 in 10.0 mi NW 12.7 mph - N/A   Unknown
2:36 AM 3.2 °F -13.9 °F -4.0 °F 72% 29.80 in 10.0 mi NNW 12.7 mph - N/A   Unknown
2:56 AM 3.2 °F -14.6 °F -2.2 °F 78% 29.80 in 10.0 mi NNW 13.8 mph - N/A   Unknown
3:16 AM 3.2 °F -14.6 °F -5.8 °F 66% 29.81 in 10.0 mi NNW 13.8 mph - N/A   Unknown
3:36 AM 3.2 °F -13.9 °F -2.2 °F 78% 29.81 in 10.0 mi NW 12.7 mph - N/A   Unknown
3:56 AM 3.2 °F -14.6 °F -4.0 °F 72% 29.81 in 10.0 mi NW 13.8 mph - N/A   Unknown
4:16 AM 3.2 °F -13.9 °F -2.2 °F 78% 29.81 in 10.0 mi NW 12.7 mph - N/A   Unknown
4:36 AM 1.4 °F -15.3 °F -5.8 °F 72% 29.81 in 10.0 mi NW 11.5 mph - N/A   Unknown
4:56 AM 1.4 °F -16.1 °F -5.8 °F 72% 29.82 in 10.0 mi WNW 12.7 mph - N/A   Unknown
5:16 AM -0.4 °F -18.4 °F -5.8 °F 78% 29.82 in 10.0 mi NW 12.7 mph - N/A   Unknown
5:36 AM 1.4 °F -16.1 °F -0.4 °F 92% 29.82 in 10.0 mi NW 12.7 mph - N/A   Unknown
5:56 AM -0.4 °F -18.4 °F -9.4 °F 66% 29.81 in 10.0 mi NW 12.7 mph - N/A   Unknown
6:16 AM -0.4 °F -17.6 °F -0.4 °F 100% 29.82 in 10.0 mi NW 11.5 mph - N/A   Unknown
6:36 AM 1.4 °F -16.9 °F -14.8 °F 47% 29.82 in 10.0 mi NW 13.8 mph - N/A   Unknown
6:56 AM -0.4 °F -17.6 °F -13.0 °F 55% 29.82 in 10.0 mi NW 11.5 mph - N/A   Unknown
7:16 AM -0.4 °F -18.4 °F -7.6 °F 72% 29.82 in 10.0 mi NW 12.7 mph - N/A   Unknown
7:36 AM -0.4 °F -17.6 °F -16.6 °F 46% 29.82 in 10.0 mi NW 11.5 mph - N/A   Unknown
7:56 AM -0.4 °F -18.4 °F - N/A% 29.83 in 10.0 mi WNW 12.7 mph - N/A   Unknown
8:16 AM -0.4 °F -17.6 °F -16.6 °F 46% 29.83 in 10.0 mi WNW 11.5 mph - N/A   Unknown
8:36 AM -0.4 °F -19.2 °F -2.2 °F 92% 29.83 in 10.0 mi NW 13.8 mph - N/A   Unknown
8:56 AM -0.4 °F -19.2 °F -4.0 °F 85% 29.83 in 10.0 mi NW 13.8 mph - N/A   Unknown
9:16 AM -0.4 °F -18.4 °F -14.8 °F 51% 29.84 in 10.0 mi NW 12.7 mph - N/A   Unknown
9:36 AM -0.4 °F -16.7 °F -0.4 °F 100% 29.84 in 10.0 mi NW 10.4 mph - N/A   Unknown
9:56 AM -0.4 °F -14.7 °F -14.8 °F 51% 29.84 in 10.0 mi NW 8.1 mph - N/A   Unknown
10:16 AM -0.4 °F -18.4 °F -2.2 °F 92% 29.84 in 10.0 mi NW 12.7 mph - N/A   Unknown
10:36 AM -2.2 °F -21.5 °F -13.0 °F 60% 29.85 in 10.0 mi NW 13.8 mph - N/A   Unknown
10:56 AM -2.2 °F -20.7 °F -7.6 °F 78% 29.85 in 10.0 mi NW 12.7 mph - N/A   Unknown
11:16 AM -2.2 °F -21.5 °F -9.4 °F 71% 29.85 in 10.0 mi NW 13.8 mph - N/A   Unknown
11:36 AM -2.2 °F -20.7 °F -9.4 °F 71% 29.85 in 10.0 mi NW 12.7 mph - N/A   Unknown
11:56 AM -2.2 °F -22.2 °F -7.6 °F 78% 29.86 in 10.0 mi NW 15.0 mph - N/A   Unknown
12:16 PM -2.2 °F -22.9 °F -13.0 °F 60% 29.86 in 10.0 mi NW 16.1 mph - N/A   Unknown
12:36 PM -2.2 °F -21.5 °F -4.0 °F 92% 29.87 in 10.0 mi NW 13.8 mph 17.3 mph N/A   Unknown
12:56 PM -2.2 °F -21.5 °F -14.8 °F 55% 29.87 in 10.0 mi NW 13.8 mph - N/A   Unknown
1:16 PM -2.2 °F -19.9 °F -5.8 °F 85% 29.87 in 10.0 mi NW 11.5 mph - N/A   Unknown
1:36 PM -2.2 °F -20.7 °F -14.8 °F 55% 29.87 in 10.0 mi NW 12.7 mph - N/A   Unknown
1:56 PM -4.0 °F -19.0 °F -9.4 °F 78% 29.88 in 10.0 mi NNW 8.1 mph - N/A   Unknown
2:16 PM -4.0 °F -21.2 °F -11.2 °F 71% 29.88 in 10.0 mi NW 10.4 mph - N/A   Unknown
2:36 PM -4.0 °F -22.1 °F -13.0 °F 65% 29.88 in 10.0 mi NW 11.5 mph - N/A   Unknown
2:56 PM -5.8 °F -23.4 °F -11.2 °F 77% 29.88 in 10.0 mi NW 10.4 mph - N/A   Unknown
3:16 PM -5.8 °F -23.4 °F -11.2 °F 77% 29.88 in 10.0 mi NW 10.4 mph - N/A   Unknown
3:36 PM -5.8 °F -21.2 °F -13.0 °F 71% 29.88 in 10.0 mi NW 8.1 mph - N/A   Unknown
3:56 PM -5.8 °F -23.4 °F -13.0 °F 71% 29.88 in 10.0 mi NNW 10.4 mph - N/A   Unknown
4:16 PM -5.8 °F -24.4 °F -13.0 °F 71% 29.88 in 10.0 mi NNW 11.5 mph - N/A   Unknown
4:36 PM -7.6 °F -26.6 °F -14.8 °F 71% 29.88 in 10.0 mi NW 11.5 mph - N/A   Unknown
4:56 PM -7.6 °F -27.5 °F -14.8 °F 71% 29.87 in 10.0 mi NW 12.7 mph - N/A   Unknown
5:16 PM -7.6 °F -26.6 °F -14.8 °F 71% 29.86 in 10.0 mi NNW 11.5 mph - N/A   Unknown
5:36 PM -9.4 °F -24.3 °F -16.6 °F 71% 29.86 in 10.0 mi NNW 6.9 mph - N/A   Unknown
5:56 PM -11.2 °F -27.8 °F -18.4 °F 70% 29.86 in 10.0 mi NNW 8.1 mph - N/A   Unknown
6:16 PM -11.2 °F -30.1 °F -18.4 °F 70% 29.87 in 10.0 mi NNW 10.4 mph - N/A   Unknown
6:36 PM -11.2 °F -29.0 °F -14.8 °F 84% 29.87 in 10.0 mi NNW 9.2 mph - N/A   Unknown
6:56 PM -11.2 °F -30.1 °F -20.2 °F 64% 29.87 in 10.0 mi NNW 10.4 mph - N/A   Unknown
7:16 PM -14.8 °F -30.8 °F -22.0 °F 70% 29.87 in 10.0 mi North 6.9 mph - N/A   Unknown
7:36 PM -13.0 °F -28.6 °F -18.4 °F 77% 29.88 in 10.0 mi NNW 6.9 mph - N/A   Unknown
7:56 PM -14.8 °F -27.2 °F -25.6 °F 58% 29.88 in 10.0 mi North 4.6 mph - N/A   Unknown
8:16 PM -14.8 °F -32.2 °F -23.8 °F 64% 29.87 in 10.0 mi North 8.1 mph - N/A   Unknown
8:36 PM -14.8 °F -24.8 °F - N/A% 29.87 in 10.0 mi North 3.5 mph - N/A   Unknown
8:56 PM -13.0 °F -31.3 °F - N/A% 29.87 in 10.0 mi NNW 9.2 mph - N/A   Unknown
9:16 PM -14.8 °F -32.2 °F - N/A% 29.87 in 10.0 mi NNW 8.1 mph - N/A   Unknown
9:36 PM -14.8 °F -30.8 °F -14.8 °F 100% 29.87 in 10.0 mi NNW 6.9 mph - N/A   Unknown
9:56 PM -14.8 °F -32.2 °F -23.8 °F 64% 29.86 in 10.0 mi NNW 8.1 mph - N/A   Unknown
10:16 PM -14.8 °F -30.8 °F -27.4 °F 53% 29.86 in 10.0 mi NNW 6.9 mph - N/A   Unknown
10:36 PM -14.8 °F -34.6 °F - N/A% 29.86 in 10.0 mi NNW 10.4 mph - N/A   Unknown
10:56 PM -16.6 °F -35.7 °F - N/A% 29.86 in 10.0 mi NW 9.2 mph - N/A   Unknown
11:16 PM -18.4 °F -39.1 °F - N/A% 29.85 in 10.0 mi NW 10.4 mph - N/A   Unknown
11:36 PM -18.4 °F -37.9 °F -18.4 °F 100% 29.84 in 10.0 mi NNW 9.2 mph - N/A   Unknown
11:56 PM -16.6 °F -31.3 °F -23.8 °F 70% 29.83 in 10.0 mi NNW 5.8 mph - N/A   Unknown